Tracking 35275 objects as of 9-Sep-2026
HD Live streaming from Space Station
objects crossing your sky now

QIANFAN-98

Track QIANFAN-98 now!
10-day predictions
QIANFAN-98 is classified as:


NORAD ID: 66040
Int'l Code: 2025-233H
Launch date: October 17, 2025
Source: People's Republic of China (PRC)
Launch site: Taiyaun Space Center, China (TSC)
Your satellite tracking list
Your tracking list is empty




NASA's NSSDC Master Catalog

Two Line Element Set (TLE):
1 66040U 25233H   26251.85249596  .00000063  00000-0  79087-4 0  9999
2 66040  89.0030  34.4506 0001477 102.5418 257.5899 13.51028114 44627
Source of the keplerian elements: AFSPC